Weather in Palmino

Russia / Sverdlovsk Oblast     58°36′59″N   64°57′38″E
temp.,
°C
wind,
m/s
gust,
m/s
humid.,
%
clouds,
%
prec.,
mm/h
press.,
hPa
HPBL,
m
26 july, mon
mon2623:00+14nnw3852100 0.0 1014619
02:00+9wnw257451 0.0 1015105
05:00+11w2664100 0.0 1015207
08:00+13wnw3769100 0.0 1015368
11:00+15wnw3557100 0.0 1015671
14:00+19w4638100 0.0 10142588
17:00+19wnw463853 0.0 10141851
20:00+16wsw265098 0.0 1013206
27 july, tue
tue2723:00+12wsw256653 0.0 101398
02:00+13sw2964100 0.0 1012243
05:00+12sw377249 0.0 1011238
08:00+16sw486123 0.0 1009488
11:00+19wsw6860100 0.3 10071569
14:00+14wsw3790100 1.9 1008665
17:00+17wsw367139 3.0 1007886
20:00+14n2671100 0.3 1007187
28 july, wed
wed2823:00+13nw2373100 0.3 100778
02:00+10wnw256895 0.0 1007136
05:00+7wnw288429 0.0 1008200
08:00+11wnw3566100 0.0 1007598
11:00+13w355897 0.1 10071506
14:00+9wnw3696100 1.6 1008449
17:00+13wnw356395 1.7 10071370
20:00+13nw3650100 0.1 1008571
29 july, thu
thu2923:00+11wsw2655100 0.1 1008150
02:00+10wsw276399 0.0 1008231
05:00+7w257586 0.0 1008120
08:00+11w355857 0.0 1008652
11:00+15w344492 0.0 10081828
14:00+13wsw4561100 0.0 10081032
17:00+15w265260 0.1 10071535
20:00+13ese1164100 0.0 100719
30 july, fri
fri3023:00+12se2477100 0.1 1006110
02:00+10ese2395100 0.4 100569
05:00+10sse129789 0.4 100571
08:00+14ese127924 0.0 1005270
11:00+20s225071 0.0 10051367
14:00+23w363972 0.0 10052107
17:00+21ne1155100 0.0 100411
20:00+18se2372100 0.1 100451